This is the latest recevied weather packets stored in our database for station/object ENMS. If no packets are shown the sender has not sent any weather packets the latest 10 day(s).
| Time | Temp. | Humidity | Pressure | Rain* | Wind** | Luminosity | Snow |
|---|---|---|---|---|---|---|---|
| 1787945602 | 16.67° C | 59% | 1012 hPa | - | - | - | - |
| 1787943786 | 17.78° C | 55% | 1012 hPa | - | - | - | - |
| 1787941987 | 20° C | 49% | 1012 hPa | - | - | - | - |
| 1787940187 | 20° C | 49% | 1012 hPa | - | - | - | - |
| 1787938388 | 20.56° C | 43% | 1012 hPa | - | - | - | - |
| 1787936588 | 21.67° C | 40% | 1012 hPa | - | - | - | - |
| 1787934788 | 21.67° C | 37% | 1013 hPa | - | - | - | - |
| 1787932989 | 22.78° C | 35% | 1013 hPa | - | - | - | - |
| 1787931188 | 21.67° C | 43% | 1013 hPa | - | - | - | - |
| 1787929388 | 22.78° C | 43% | 1014 hPa | - | - | - | - |
| 1787927588 | 21.67° C | 49% | 1014 hPa | - | - | - | - |
| 1787923987 | 22.78° C | 43% | 1015 hPa | - | - | - | - |
| 1787922188 | 23.89° C | 41% | 1015 hPa | - | - | - | - |
| 1787920387 | 21.67° C | 49% | 1015 hPa | - | - | - | - |
| 1787918587 | 22.78° C | 46% | 1015 hPa | - | - | - | - |
| 1787916787 | 21.67° C | 53% | 1016 hPa | - | - | - | - |
| 1787914987 | 21.67° C | 56% | 1016 hPa | - | - | - | - |
| 1787913187 | 20° C | 64% | 1017 hPa | - | - | - | - |
| 1787911387 | 20° C | 64% | 1017 hPa | - | - | - | - |
| 1787909588 | 18.89° C | 68% | 1017 hPa | - | - | - | - |
| 1787907789 | 16.67° C | 77% | 1018 hPa | - | - | - | - |
| 1787905987 | 15.56° C | 77% | 1018 hPa | - | - | - | - |
| 1787904187 | 15.56° C | 77% | 1018 hPa | - | - | - | - |
| 1787902391 | 13.89° C | 82% | 1018 hPa | - | - | - | - |
| 1787900587 | 11.67° C | 93% | 1019 hPa | - | - | - | - |
* Rain since midnight (hover to see other rain measurements)
** Current wind speed in m/s (hover to see current wind gust speed)